Regional Weather Roundup
Issued by NWS

Home | Current Version | Previous Version | Text Only | Print | Product List | Glossary Off
Versions: 1 2 3 4 5 6 7 8 9 10 11 12 13 14 15 16 17 18 19 20 21 22 23 24 25 26 27 28 29 30 31 32 33 34 35 36 37 38 39 40 41 42 43 44 45 46 47 48 49 50

000
ASUS43 KIND 310909
RWRIN

WEATHER ROUNDUP FOR INDIANA
NATIONAL WEATHER SERVICE INDIANAPOLIS IN
400 AM EST SAT JAN 31 2015

NOTE: "FAIR" INDICATES FEW OR NO CLOUDS BELOW 12,000 FEET WITH NO
SIGNIFICANT WEATHER AND/OR OBSTRUCTIONS TO VISIBILITY.

* - STATION DOES NOT REPORT WEATHER SUCH AS PRECIPITATION OR FOG.

+ - STATION NOT QUALITY CONTROLLED BY THE NATIONAL WEATHER SERVICE.
    USE DATA WITH CAUTION...ESPECIALLY DEWPOINT AND RELATIVE
    HUMIDITY OBSERVATIONS.

INZ001>003-010>013-019-020-311000-
NORTHWEST INDIANA

CITY           SKY/WX    TMP DP  RH WIND       PRES   REMARKS
GARY /AIRPORT/ CLOUDY    27  18  69 CALM      30.32S
KNOX *+        CLOUDY    23  10  58 S8        30.30F WCI  14
LA PORTE +     CLOUDY    22  19  88 CALM      30.31F
MICHIGAN CITY+ CLOUDY    23  16  74 SW5       30.32S WCI  17
MONTICELLO +   MOCLDY    21  17  85 S5        30.33F WCI  14
RENSSELAER +   CLOUDY    27  23  86 S7        30.32F WCI  19
VALPARAISO     CLOUDY    23  17  78 SW8       30.31F WCI  14

$$

LMZ046-743>745-311000-
SOUTHERN LAKE MICHIGAN

STATION/POSITION TIME  TEMP WIND        PRES
                       AIR  DIR/SP/G
                 (UTC) (F)  (DEG/KT/KT) (MB)
MICHIGAN CITY    0900   24  160/ 11/ 14   N/A

$$

INZ004-005-014>016-021>024-311000-
NORTH CENTRAL INDIANA

CITY           SKY/WX    TMP DP  RH WIND       PRES   REMARKS
GOSHEN         CLEAR     18  13  80 SW6       30.31F WCI  10
LOGANSPORT +   CLEAR     19  18  93 S7        30.34F WCI  10
PERU/GRISSOM   CLEAR     20  16  84 S3        30.32F
ROCHESTER +    PTCLDY    25  21  86 S6        30.33F WCI  18
SOUTH BEND     CLEAR     18  13  80 SW5       30.31F WCI  11
WARSAW +       CLEAR     18  14  86 CALM      30.32F

$$

INZ006>009-017-018-025>027-311000-
NORTHEAST INDIANA

CITY           SKY/WX    TMP DP  RH WIND       PRES   REMARKS
ANGOLA *+      CLEAR     10   9  92 CALM      30.30F
AUBURN +       CLEAR     16  12  86 CALM      30.33F
FORT WAYNE     CLEAR     16  13  88 S8        30.34F WCI   5
HUNTINGTON +   CLEAR     17  12  79 S3        30.33F

$$

INZ028-029-035-036-043>045-051>053-311000-
WEST CENTRAL INDIANA

CITY           SKY/WX    TMP DP  RH WIND       PRES   REMARKS
GREENCASTLE +  CLEAR     18  12  79 CALM      30.36F
LAFAYETTE      CLEAR     19  16  88 CALM      30.34F
TERRE HAUTE    CLEAR     20  16  84 CALM      30.38F

$$

INZ030>032-037>040-046>048-054>057-064-065-311000-
CENTRAL INDIANA

CITY           SKY/WX    TMP DP  RH WIND       PRES   REMARKS
CP ATTERBURY + CLEAR     18  14  86 CALM      30.39F
FRANKFORT +    CLEAR     21  18  88 SE7       30.35F WCI  13
GREENWOOD *+   CLEAR     19  14  79 S6        30.37F WCI  11
INDIANAPOLIS   CLEAR     17  14  88 S6        30.36F WCI   9
-EAGLE CREEK   CLEAR     18  15  88 CALM      30.36F
KOKOMO *+      CLEAR     21  16  79 S8        30.34F WCI  12
MARION +       CLEAR     19  15  86 S7        30.35F WCI   9
MT COMFORT *+  CLEAR     19  12  73 S6        30.37F WCI  11
SHELBYVILLE    CLEAR     22  17  81 S6        30.37F WCI  14
ZIONSVILLE +   CLEAR     20  15  81 S5        30.35F WCI  14

$$

INZ033-034-041-042-049-050-058-059-311000-
EAST CENTRAL INDIANA

CITY           SKY/WX    TMP DP  RH WIND       PRES   REMARKS
MUNCIE         CLEAR     20  14  77 S6        30.35F WCI  12

$$

INZ060-061-067>069-081>083-085>088-311000-
SOUTHWEST INDIANA

CITY           SKY/WX    TMP DP  RH WIND       PRES   REMARKS
EVANSVILLE     MOCLDY    24  20  84 CALM      30.41F
HUNTINGBURG *+ CLEAR     21  16  79 CALM      30.40F
WASHINGTON +   CLEAR     24  19  81 CALM      30.40S

$$

INZ062-063-066-070>080-084-089>092-311000-
SOUTH CENTRAL AND SOUTHEAST INDIANA

CITY           SKY/WX    TMP DP  RH WIND       PRES   REMARKS
BLOOMINGTON    CLEAR     18  14  84 CALM      30.37F
NORTH VERNON + CLEAR     19  19 100 CALM      30.40F
SEYMOUR +      CLEAR     19  18  93 CALM      30.40F

$$




USA.gov is the U.S. government's official web portal to all federal, state and local government web resources and services.